Wind_Speed
27 26 26 26 25 25 25 25 24 24 23 22 21 21 21 21 21 20 20 19 18 17 16 15 14 14 14 13 13 13 13 13 12 13 13 13 13 14 14 14 14 14
27 27 26 26 25 25 25 25 25 25 24 23 23 22 21 21 21 22 21 21 21 20 18 17 15 14 14 14 14 13 14 14 14 14 15 15 16 16 17 17 17 17
28 28 27 27 26 26 26 25 25 25 25 25 24 24 24 23 23 23 23 23 23 23 22 21 19 17 16 15 15 15 15 15 15 15 16 16 17 18 19 19 20 20
29 29 28 28 28 27 27 26 26 26 26 26 26 26 26 25 25 25 25 25 25 24 24 23 23 22 20 18 17 16 16 16 17 17 17 17 18 18 19 20 21 21
29 29 29 29 29 28 28 28 27 27 27 27 27 27 26 26 26 26 26 26 26 26 25 25 25 25 24 23 21 19 18 17 17 18 18 18 18 19 19 20 20 21
30 30 30 29 29 29 29 28 28 28 27 27 26 26 26 26 26 26 26 26 26 26 26 26 26 26 26 25 25 23 21 19 18 18 18 18 18 19 19 19 19 20
31 31 30 30 29 29 29 28 28 27 27 26 26 26 26 26 26 26 26 26 26 26 26 26 26 26 26 26 26 26 25 23 22 21 20 19 18 19 19 19 20 20
32 32 32 31 30 30 29 28 28 27 26 26 26 26 26 26 25 26 26 26 26 26 26 26 26 26 26 26 26 26 26 26 25 24 23 22 21 20 20 20 20 20
33 33 32 32 32 31 30 30 29 28 27 27 26 26 26 26 26 26 27 27 27 27 27 27 27 27 26 26 26 26 26 26 26 25 24 24 23 22 22 21 20 21
33 33 33 33 32 32 32 31 30 30 29 29 28 27 27 27 27 28 28 29 29 29 29 29 29 29 28 28 28 27 27 26 27 27 26 25 25 24 23 23 22 22
33 33 34 34 34 34 34 33 33 32 32 31 31 30 29 29 29 29 29 30 30 30 30 30 30 31 31 30 30 30 29 28 27 27 27 27 27 26 26 25 24 24
35 35 35 36 36 36 36 36 36 35 35 34 34 33 33 32 32 31 30 30 31 31 31 31 31 32 32 32 32 32 32 31 30 29 29 29 29 29 28 28 27 27
35 36 36 37 37 38 38 38 37 37 37 37 36 36 35 35 35 34 33 33 32 32 32 33 33 33 33 34 34 34 34 34 33 32 32 31 30 30 30 30 30 30
34 35 35 36 37 37 37 38 38 38 37 37 37 37 36 37 37 37 36 36 35 34 34 34 34 34 35 35 36 36 36 36 36 35 35 35 34 33 32 32 32 32
34 34 35 35 35 35 36 36 37 38 38 38 38 37 37 37 37 38 38 38 38 38 37 36 36 36 36 37 37 38 38 38 38 38 38 38 37 37 36 35 34 34
34 35 35 35 35 36 36 36 37 38 39 40 40 40 39 39 39 39 39 40 40 40 40 39 39 39 39 39 39 40 41 41 41 41 40 40 40 40 40 39 38 37
36 36 36 37 38 39 39 39 39 39 40 40 41 41 41 41 41 41 41 41 42 42 42 41 41 41 41 41 41 42 42 43 44 43 43 42 42 42 42 42 41 41
38 39 39 40 41 42 43 43 43 43 43 43 43 43 43 42 42 41 42 42 43 43 44 44 43 42 43 43 43 43 44 45 46 46 45 45 45 45 44 43 44 44
40 41 42 43 44 45 46 46 47 47 47 46 46 45 45 44 43 43 42 42 42 43 45 46 46 44 43 44 45 45 45 46 48 48 48 48 47 47 47 46 45 46
40 42 43 45 46 47 47 48 49 49 49 48 48 47 47 46 46 45 45 44 44 45 46 47 48 47 46 45 46 46 46 47 49 50 51 50 50 49 48 47 46 47
42 43 44 46 47 48 49 49 50 50 50 49 49 49 48 48 47 47 47 48 48 48 48 49 50 50 50 48 47 47 47 47 49 51 52 53 53 51 50 49 48 49
45 46 48 49 50 51 52 53 53 53 52 51 50 50 49 49 48 48 48 49 50 50 51 51 52 53 53 52 50 48 47 48 50 52 53 55 56 55 52 51 51 51
50 51 52 54 55 56 56 57 57 57 57 55 54 53 52 51 50 50 50 51 52 52 52 52 53 55 56 55 54 53 51 50 51 53 53 55 58 57 55 54 54 54
53 55 56 57 58 59 60 61 61 61 61 60 58 57 57 55 52 52 52 53 54 54 54 54 55 57 58 59 59 58 55 53 53 54 55 56 58 58 57 56 55 54
57 58 59 60 61 62 62 63 63 63 63 62 60 58 58 58 56 54 54 54 55 56 56 56 57 58 59 61 62 62 60 58 56 55 56 57 57 57 57 57 56 55
59 60 61 62 63 63 64 65 65 65 65 64 62 59 58 58 58 57 57 57 57 58 58 58 59 59 60 63 65 66 65 63 61 59 57 56 56 56 58 59 59 58
Wind_Direction
9 8 8 8 7 7 7 8 9 10 11 11 10 7 5 3 3 3 3 3 3 2 0 355 349 342 336 329 322 314 308 302 294 286 280 278 277 274 269 263 256 254
11 11 11 11 11 11 11 11 12 12 13 13 13 12 11 8 6 5 4 4 3 3 1 359 355 349 342 336 330 322 313 305 298 290 283 278 276 275 273 270 263 258
12 12 13 13 14 14 14 14 14 14 14 14 14 14 13 12 10 8 6 5 3 2 1 359 357 353 348 342 335 330 323 315 307 299 292 286 281 278 276 273 270 265
13 14 15 15 16 16 16 15 15 14 15 14 14 14 13 12 10 9 7 5 3 2 0 358 356 355 353 349 343 336 329 324 319 313 306 299 293 288 283 279 275 271
15 15 16 17 17 18 18 18 17 17 16 15 15 14 12 11 10 8 7 4 2 0 359 358 356 354 353 352 349 345 338 332 325 320 315 309 304 298 291 285 280 277
15 16 16 17 17 18 19 20 20 20 19 18 17 15 14 13 11 9 7 5 3 360 358 356 355 353 352 350 348 346 344 340 334 328 320 314 308 303 298 294 292 292
13 14 14 14 15 15 16 17 18 18 18 18 17 16 16 14 13 12 10 8 6 3 360 357 354 352 350 347 346 344 343 341 339 335 330 324 319 314 309 305 302 299
10 9 9 9 9 9 9 10 10 10 11 11 11 11 11 10 10 9 9 8 7 5 3 0 357 353 350 347 344 342 340 338 336 335 332 329 325 320 315 311 306 301
7 5 4 3 3 2 2 2 2 2 2 2 3 3 3 3 3 3 3 3 3 3 1 359 357 355 352 349 346 342 339 336 333 331 329 326 323 320 317 314 310 305
5 3 1 359 358 357 357 356 356 355 355 355 355 355 355 356 356 357 357 358 358 358 357 355 354 353 351 349 347 344 341 337 333 330 327 323 320 317 315 313 311 308
5 3 1 359 357 355 353 352 351 350 350 349 348 348 348 348 349 350 351 351 352 352 352 351 350 349 348 347 345 344 342 340 337 333 329 325 320 317 313 310 308 306
3 2 360 358 356 354 352 350 348 347 345 344 343 342 342 341 342 343 343 344 344 345 346 346 346 346 345 345 343 342 340 339 338 336 332 328 324 320 316 311 308 305
0 359 357 356 354 352 350 348 346 344 343 341 339 338 337 336 335 335 336 336 337 338 339 339 340 341 341 341 341 340 339 337 336 334 333 331 328 324 320 315 310 307
357 356 354 353 351 349 347 345 343 342 340 338 337 335 333 332 331 330 329 329 330 331 332 333 334 335 336 336 336 337 337 336 334 332 331 330 329 327 323 319 314 309
353 352 350 348 346 345 343 341 339 338 337 335 334 332 331 329 328 326 325 324 324 324 325 327 328 330 331 331 332 333 333 332 332 331 329 327 326 325 323 321 318 313
348 346 345 343 342 340 339 338 336 335 333 332 331 330 329 327 326 324 322 321 320 320 321 322 323 325 326 327 328 328 328 328 328 328 327 325 324 322 321 320 318 316
342 341 340 339 339 338 337 336 335 333 331 329 328 327 326 325 324 322 321 320 319 319 319 319 319 320 322 322 323 323 324 324 324 324 325 323 322 320 318 317 316 315
338 337 336 336 336 336 335 334 333 332 330 328 326 324 323 322 321 320 319 319 318 318 318 318 317 317 318 318 318 319 319 319 319 320 321 321 320 318 317 315 313 313
335 333 333 333 334 334 333 332 331 330 329 328 326 323 321 320 320 319 318 317 317 318 318 317 316 315 315 315 315 315 316 316 315 315 316 317 318 317 316 314 311 310
332 331 330 331 331 331 331 330 329 328 328 326 324 322 319 319 318 317 317 316 316 316 316 315 314 313 313 313 313 312 313 313 312 311 312 313 314 315 315 313 310 307
330 329 329 329 329 329 329 328 328 327 326 325 323 321 318 317 316 315 315 314 314 314 313 313 312 311 310 311 310 310 311 310 309 309 309 310 311 312 313 312 309 305
329 329 329 329 328 328 328 327 327 326 325 325 323 320 318 316 314 313 312 312 312 312 312 312 311 310 310 310 309 309 309 309 307 307 308 308 308 309 310 311 308 305
328 328 328 328 328 328 328 327 327 326 325 325 324 321 318 316 315 314 312 311 311 311 311 311 311 310 310 310 309 308 308 308 306 306 306 306 305 307 309 310 308 305
327 328 328 328 328 327 327 327 327 326 325 325 324 321 319 317 317 315 313 312 311 311 312 312 311 311 310 309 307 306 306 305 305 304 304 303 303 305 307 308 307 305
326 326 326 326 326 326 325 325 325 324 323 323 322 320 318 317 316 315 313 312 312 311 312 311 310 309 309 307 305 304 305 304 303 303 302 301 303 304 303 303 302 300
325 325 324 324 324 324 324 324 324 323 322 321 320 319 317 316 315 315 314 313 312 311 311 310 309 308 308 306 305 305 305 304 303 301 300 299 300 299 297 298 298 297
Height
10669 10667 10665 10663 10661 10659 10657 10655 10654 10652 10651 10649 10647 10645 10644 10642 10640 10639 10638 10636 10635 10634 10633 10632 10631 10629 10628 10627 10626 10625 10624 10623 10622 10621 10620 10619 10618 10617 10616 10615 10615 10614
10670 10668 10666 10664 10662 10660 10658 10656 10654 10652 10650 10649 10647 10646 10644 10642 10640 10639 10637 10635 10634 10633 10631 10630 10629 10628 10626 10625 10624 10622 10621 10620 10619 10618 10617 10617 10616 10615 10614 10613 10612 10612
10671 10669 10667 10665 10662 10660 10658 10656 10654 10652 10651 10649 10647 10646 10644 10642 10641 10639 10637 10635 10633 10632 10630 10629 10628 10626 10625 10623 10622 10620 10619 10618 10617 10616 10615 10614 10613 10612 10611 10610 10610 10609
10671 10669 10667 10665 10663 10661 10659 10657 10655 10653 10651 10649 10647 10645 10644 10642 10640 10639 10637 10635 10633 10632 10630 10628 10627 10625 10623 10622 10620 10619 10617 10616 10614 10613 10612 10611 10610 10609 10608 10607 10606 10605
10671 10669 10667 10665 10663 10661 10659 10657 10655 10653 10651 10649 10647 10646 10644 10642 10640 10638 10637 10635 10633 10631 10629 10627 10626 10624 10622 10620 10619 10617 10616 10614 10612 10611 10609 10608 10607 10606 10605 10604 10603 10602
10672 10670 10668 10666 10664 10662 10660 10658 10656 10654 10652 10650 10648 10646 10644 10642 10640 10639 10637 10635 10633 10631 10628 10626 10625 10623 10621 10619 10617 10615 10614 10612 10610 10609 10607 10606 10604 10603 10601 10600 10599 10598
10672 10670 10668 10666 10664 10663 10661 10659 10657 10655 10653 10651 10649 10647 10645 10643 10641 10639 10637 10634 10632 10630 10628 10626 10624 10622 10620 10618 10616 10614 10612 10610 10608 10606 10605 10603 10601 10600 10598 10597 10595 10594
10672 10671 10669 10667 10665 10663 10661 10659 10657 10655 10653 10651 10649 10647 10645 10643 10641 10639 10637 10634 10632 10630 10628 10626 10624 10621 10619 10617 10615 10612 10610 10608 10606 10604 10602 10600 10599 10597 10595 10594 10592 10591
10673 10671 10669 10667 10665 10664 10662 10660 10658 10656 10654 10651 10649 10647 10645 10643 10640 10638 10636 10634 10631 10629 10627 10625 10623 10621 10618 10616 10614 10611 10609 10606 10604 10602 10600 10598 10596 10594 10592 10591 10589 10588
10673 10671 10669 10667 10665 10663 10662 10660 10658 10656 10653 10651 10649 10647 10645 10642 10640 10637 10635 10633 10630 10628 10626 10623 10621 10619 10617 10615 10613 10610 10608 10605 10603 10600 10598 10596 10594 10592 10590 10588 10586 10585
10673 10671 10669 10666 10664 10662 10660 10658 10657 10655 10653 10650 10648 10646 10644 10641 10639 10636 10634 10631 10629 10627 10624 10622 10620 10617 10615 10613 10611 10608 10606 10604 10601 10599 10596 10594 10592 10589 10587 10585 10583 10582
10672 10670 10667 10665 10663 10660 10658 10656 10654 10652 10650 10649 10647 10644 10642 10640 10637 10635 10632 10630 10627 10625 10622 10620 10618 10615 10613 10611 10609 10606 10604 10601 10599 10597 10594 10592 10589 10587 10585 10583 10581 10579
10671 10669 10666 10664 10661 10659 10656 10654 10652 10650 10648 10646 10644 10643 10640 10638 10636 10633 10631 10628 10626 10623 10620 10617 10615 10613 10610 10608 10606 10604 10601 10599 10596 10594 10592 10589 10587 10585 10582 10580 10578 10575
10670 10668 10666 10663 10661 10659 10656 10654 10651 10649 10647 10645 10643 10640 10638 10636 10633 10631 10628 10626 10623 10621 10618 10615 10613 10610 10608 10605 10602 10600 10598 10595 10593 10590 10588 10586 10584 10581 10579 10577 10575 10572
10669 10667 10665 10663 10660 10658 10656 10653 10650 10647 10645 10642 10640 10638 10636 10633 10630 10628 10625 10623 10620 10618 10615 10613 10610 10607 10604 10602 10599 10596 10594 10591 10589 10586 10584 10582 10580 10578 10575 10573 10571 10568
10668 10666 10663 10661 10659 10656 10654 10651 10649 10645 10642 10639 10636 10634 10631 10629 10627 10624 10621 10619 10616 10614 10612 10609 10607 10604 10601 10598 10595 10592 10589 10587 10584 10582 10580 10578 10575 10573 10571 10569 10567 10564
10665 10663 10661 10659 10656 10653 10651 10648 10646 10643 10640 10637 10634 10630 10628 10625 10622 10619 10617 10614 10612 10609 10607 10605 10603 10600 10597 10594 10591 10588 10585 10582 10580 10577 10575 10573 10571 10568 10566 10564 10561 10559
10661 10659 10657 10655 10653 10650 10647 10645 10642 10640 10637 10634 10631 10628 10625 10622 10619 10616 10613 10610 10607 10605 10602 10600 10598 10596 10594 10590 10587 10584 10581 10578 10575 10573 10570 10568 10566 10563 10561 10559 10557 10554
10658 10655 10653 10651 10649 10646 10643 10641 10638 10635 10633 10630 10627 10624 10621 10618 10615 10613 10610 10608 10605 10602 10598 10595 10592 10591 10590 10586 10583 10580 10577 10574 10570 10567 10565 10563 10561 10558 10556 10554 10551 10548
10656 10653 10650 10648 10645 10643 10640 10637 10634 10631 10629 10626 10624 10620 10617 10614 10611 10608 10605 10603 10601 10598 10596 10592 10588 10586 10585 10582 10579 10576 10573 10570 10566 10562 10560 10558 10556 10554 10551 10548 10546 10543
10653 10650 10648 10645 10642 10640 10637 10634 10631 10628 10625 10623 10620 10616 10613 10610 10607 10604 10600 10597 10595 10593 10590 10587 10583 10579 10578 10576 10574 10571 10568 10565 10561 10557 10554 10551 10549 10548 10546 10544 10540 10537
10647 10645 10642 10639 10637 10634 10631 10628 10625 10623 10620 10618 10615 10611 10608 10605 10602 10599 10595 10592 10589 10586 10584 10581 10576 10572 10570 10568 10567 10565 10563 10560 10555 10552 10548 10544 10541 10541 10540 10538 10535 10531
10640 10637 10634 10631 10629 10626 10623 10620 10617 10614 10612 10610 10607 10604 10600 10598 10595 10592 10588 10585 10582 10579 10577 10574 10570 10565 10561 10559 10557 10555 10555 10553 10549 10545 10543 10538 10534 10532 10532 10531 10527 10524
10633 10631 10627 10624 10621 10618 10615 10612 10609 10605 10602 10600 10598 10595 10591 10588 10587 10584 10581 10577 10574 10571 10569 10566 10562 10558 10554 10551 10547 10545 10545 10544 10542 10539 10536 10532 10528 10525 10524 10523 10520 10516
10627 10624 10621 10618 10615 10612 10609 10606 10603 10599 10596 10593 10591 10588 10584 10580 10578 10576 10573 10570 10567 10563 10561 10559 10556 10552 10547 10542 10538 10535 10534 10533 10532 10530 10528 10525 10522 10520 10517 10515 10513 10510
10621 10618 10615 10612 10610 10607 10603 10600 10597 10594 10590 10587 10584 10582 10579 10574 10570 10567 10564 10562 10559 10556 10553 10551 10548 10545 10540 10533 10527 10524 10522 10521 10520 10519 10518 10517 10516 10514 10511 10508 10505 10502